Location: Unspecified
(34.6333°N, 0.0000°E)
Time: 14:42:04
(UTC+00:00)

SR - All Passes

Search period start: 04 April 2026 00:00
Search period end: 14 April 2026 00:00
Orbit: 571 x 850 km, 66.7° (Epoch: 29 March)

Date Brightness Start Highest point End Pass type
(mag) Time Alt. Az. Time Alt. Az. Time Alt. Az.
4 Apr - 00:47:23 10° NNE 00:48:55 11° NE 00:50:28 10° ENE visible
4 Apr - 02:25:53 10° NNW 02:31:27 74° ENE 02:37:12 10° SSE visible
4 Apr - 04:09:55 10° WNW 04:12:34 13° WSW 04:15:14 10° SW night (unlit)
4 Apr - 16:49:44 10° SSW 16:54:04 84° WNW 16:58:44 10° NNE daylight
5 Apr - 01:31:15 10° N 01:36:15 34° ENE 01:41:24 10° ESE visible
5 Apr - 03:12:58 10° NW 03:17:53 32° WSW 03:22:54 10° S night (unlit)
5 Apr - 15:55:18 10° S 15:59:11 34° ESE 16:03:21 10° NE daylight
5 Apr - 17:37:35 10° WSW 17:40:56 21° NW 17:44:28 10° N daylight
6 Apr - 00:37:22 10° NNE 00:40:48 16° NE 00:44:17 10° E visible
6 Apr - 02:17:25 10° NNW 02:23:00 74° WSW 02:28:44 10° SSE visible
6 Apr - 15:02:48 10° SE 15:04:34 12° ESE 15:06:24 10° E daylight
6 Apr - 16:41:21 10° SW 16:45:35 50° WNW 16:50:10 10° NNE daylight
7 Apr - 01:22:29 10° NNW 01:27:54 50° ENE 01:33:28 10° SE visible
7 Apr - 03:05:09 10° WNW 03:09:14 21° WSW 03:13:24 10° SSW night (unlit)
7 Apr - 15:46:19 10° SSW 15:50:34 59° ESE 15:55:10 10° NE daylight
7 Apr - 17:30:24 10° W 17:32:43 14° NW 17:35:07 10° NNW daylight
8 Apr - 00:28:08 10° N 00:32:34 24° NE 00:37:06 10° ESE visible
8 Apr - 02:09:05 10° NW 02:14:27 48° WSW 02:19:57 10° S night (unlit)
8 Apr - 14:52:32 10° SSE 14:55:50 21° ESE 14:59:16 10° ENE daylight
8 Apr - 16:33:16 10° WSW 16:37:12 31° NW 16:41:24 10° N daylight
8 Apr - 23:35:07 10° NNE 23:36:56 11° NE 23:38:48 10° ENE visible
9 Apr - 01:13:52 10° NNW 01:19:28 76° ENE 01:25:13 10° SSE visible
9 Apr - 02:58:03 10° WNW 03:00:33 13° WSW 03:03:04 10° SW night (unlit)
9 Apr - 15:37:38 10° SSW 15:42:00 81° WNW 15:46:44 10° NNE daylight
10 Apr - 00:19:10 10° N 00:24:15 35° ENE 00:29:27 10° ESE visible
10 Apr - 02:00:57 10° NW 02:05:52 31° WSW 02:10:51 10° S night (unlit)
10 Apr - 14:43:08 10° S 14:47:06 35° ESE 14:51:21 10° NE daylight
10 Apr - 16:25:31 10° W 16:28:53 20° NW 16:32:25 10° N daylight
10 Apr - 23:25:13 10° N 23:28:46 17° NE 23:32:24 10° E visible
11 Apr - 01:05:21 10° NNW 01:10:58 72° WSW 01:16:41 10° SSE visible
11 Apr - 13:50:27 10° SE 13:52:28 13° ESE 13:54:31 10° ENE daylight
11 Apr - 15:29:15 10° SW 15:33:30 48° WNW 15:38:07 10° NNE daylight
12 Apr - 00:10:24 10° NNW 00:15:51 52° ENE 00:21:27 10° SE visible
12 Apr - 01:53:08 10° WNW 01:57:11 20° WSW 02:01:17 10° SSW night (unlit)
12 Apr - 14:34:08 10° SSW 14:38:26 61° ESE 14:43:05 10° NNE daylight
12 Apr - 16:18:19 10° WNW 16:20:37 14° NW 16:23:00 10° NNW daylight
12 Apr - 23:15:59 10° N 23:20:31 25° NE 23:25:07 10° ESE visible
13 Apr - 00:57:00 10° NW 01:02:23 47° WSW 01:07:51 10° S visible
13 Apr - 13:40:17 10° SSE 13:43:40 22° ESE 13:47:14 10° NE daylight
13 Apr - 15:21:08 10° WSW 15:25:04 30° NW 15:29:18 10° N daylight
13 Apr - 22:22:49 10° NNE 22:24:52 12° NE 22:26:57 10° ENE visible
